Regional Weather Roundup
Issued by NWS

Home | Current Version | Previous Version | Graphics & Text | Print | Product List | Glossary On
Versions: 1 2 3 4 5 6 7 8 9 10 11 12 13 14 15 16 17 18 19 20 21 22 23 24 25 26 27 28 29 30 31 32 33 34 35 36 37 38 39 40 41 42 43 44 45 46 47 48 49 50
000
ASUS43 KLOT 240206
RWRIL

ILLINOIS REGIONAL WEATHER ROUNDUP
NATIONAL WEATHER SERVICE CHICAGO/ROMEOVILLE IL
900 PM CDT TUE SEP 23 2014

NOTE: "FAIR" INDICATES FEW OR NO CLOUDS BELOW 12,000 FEET WITH NO
SIGNIFICANT WEATHER AND/OR OBSTRUCTIONS TO VISIBILITY.

* THESE STATIONS ARE NOT UNDER NWS QUALITY CONTROL. THEY ALSO MAY NOT
  REPORT WEATHER SUCH AS PRECIPITATION OR FOG.

ILZ001-002-007-009-015-016-024-240300-
NORTHWEST ILLINOIS

CITY           SKY/WX    TMP DP  RH WIND       PRES   REMARKS
MOLINE         CLOUDY    62  48  60 E3        30.24R
STERLING*      CLOUDY    57  48  72 SE3       30.26R
SAVANNA*       CLOUDY    61  48  62 SE6       30.25R
$$

ILZ003-004-008-010-011-017-018-240300-
NORTH CENTRAL ILLINOIS

CITY           SKY/WX    TMP DP  RH WIND       PRES   REMARKS
ROCKFORD       MOCLDY    59  49  69 SE7       30.29S
DE KALB*       MOCLDY    57  48  72 E6        30.29S
PERU*          MOCLDY    63  50  63 E7        30.27S
$$

ILZ005-006-012>014-019>023-240300-
NORTHEAST ILLINOIS

CITY           SKY/WX    TMP DP  RH WIND       PRES   REMARKS
CHICAGO-OHARE  PTCLDY    63  49  60 E5        30.29S
CHICAGO-MIDWAY PTCLDY    64  52  64 E8        30.29S
AURORA         PTCLDY    58  49  72 E5        30.29R
LANSING*       CLEAR     59  50  71 E3        30.30S
JOLIET*        PTCLDY    57  48  72 E5        30.29S
WAUKEGAN       CLEAR     53  51  93 CALM      30.29S
DUPAGE AIRPORT PTCLDY    58  50  75 E3        30.28S
KANKAKEE*      PTCLDY    56  51  81 CALM      30.30R
WHEELING       CLEAR     59  49  69 SE3       30.30F
ROMEOVILLE*    PTCLDY    60  49  66 E6        30.29R
NORTHERLY ISL    N/A     62  55  77 SE2         N/A
$$

LMZ740>746-240300-
SOUTHERN LAKE MICHIGAN

STATION/POSITION SKY/WX   TEMP    WIND        PRES    VSBY  WAVE
                          AIR SEA DIR/SP/G                  HT/PER
                          (F)     (DEG/KT/KT) (MB)    (MI)  (FT/S)
SOUTHERN BUOY              62 62  130/  6/  6 1026.4R         0
WAUKEGAN HARBOR            60     190/  4/  5   N/A
BURNHAM HARBOR             62     140/  2/  3   N/A
CALUMET HARBOR             63     110/  5/  7 1024.7S
MICHIGAN CITY 6N           63 64  100/  6/  8   N/A           1
ST. JOSEPH                 64 65   80/  8/  8   N/A           0
$$

ILZ025>027-034>036-040-047-049-050-058-095>099-240300-
WEST-CENTRAL ILLINOIS

CITY           SKY/WX    TMP DP  RH WIND       PRES   REMARKS
QUINCY         MOCLDY    63  51  65 S3        30.23R
GALESBURG*     CLOUDY   N/A N/A N/A CALM      30.24S
MACOMB*        MOCLDY    55  51  86 CALM      30.25S
JACKSONVILLE*  MOCLDY    64  52  64 SE5       30.25S
PITTSFIELD*    MOCLDY    58  53  83 CALM      30.24S
$$

ILZ028>032-037-038-041>044-048-051>054-059>061-240300-
CENTRAL ILLINOIS

CITY           SKY/WX    TMP DP  RH WIND       PRES   REMARKS
PONTIAC        PTCLDY    61  48  63 E6        30.28R
BLOOMINGTON    PTCLDY    59  49  69 SE8       30.28S
DECATUR        PTCLDY    54  49  83 E6        30.27R
PEORIA         CLOUDY    64  52  64 E5        30.25S
LACON*         CLOUDY    59  50  74 SE3       30.25S
LINCOLN*       CLOUDY    62  50  65 CALM      30.24R
SPRINGFIELD    CLOUDY    63  53  70 E6        30.25S
TAYLORVILLE    MOCLDY    57  50  77 E3        30.25S HAZE
$$

ILZ033-039-045-046-055>057-062-063-240300-
EAST-CENTRAL ILLINOIS

CITY           SKY/WX    TMP DP  RH WIND       PRES   REMARKS
CHAMPAIGN      PTCLDY    57  49  74 E7        30.28R
DANVILLE*      CLEAR     58  50  76 NE5       30.26S
RANTOUL*       PTCLDY    60  48  65 E3        30.29S
MATTOON        PTCLDY    59  51  75 SE3       30.27R
PARIS*         PTCLDY    51  50  97 CALM      30.29R
$$

ILZ079-100>102-240300-
SOUTHWEST ILLINOIS

CITY           SKY/WX    TMP DP  RH WIND       PRES   REMARKS
ALTON          CLEAR     55  52  88 E5        30.25R
BELLEVILLE     CLEAR     56  52  85 CALM      30.23S
CAHOKIA*       PTCLDY    57  53  86 CALM      30.23S
SPARTA*        CLEAR     55  50  82 E3        30.25R
$$

ILZ064>066-069>071-074>076-080>082-084>086-088>090-092>094-240300-
SOUTH-CENTRAL ILLINOIS

CITY           SKY/WX    TMP DP  RH WIND       PRES   REMARKS
CARBONDALE     CLEAR     54  51  90 CALM      30.24R
CAIRO*         CLEAR     56  51  82 CALM      30.22R
EFFINGHAM*     CLEAR     54  50  86 CALM      30.26S
MARION         PTCLDY    57  52  82 CALM      30.25R
MT. VERNON     CLEAR     52  46  82 CALM      30.26R
CENTRALIA*     CLEAR     53  50  90 CALM      30.25S
SALEM*         CLEAR     55  52  89 CALM      30.26R
METROPOLIS*    CLEAR     53  50  89 CALM      30.22R
$$

ILZ067-068-072-073-078-083-087-091-240300-
SOUTHEAST ILLINOIS

CITY           SKY/WX    TMP DP  RH WIND       PRES   REMARKS
LAWRENCEVILLE  PTCLDY    55  50  83 NE5       30.27R
FLORA*         PTCLDY    60  49  68 NE6       30.26S
FAIRFIELD*     CLEAR    N/A N/A N/A CALM      30.25S
HARRISBURG*    CLEAR     62  48  59 NE6       30.25R
ROBINSON*      PTCLDY    54  52  94 CALM      30.28S
CARMI*         PTCLDY    57  51  81 CALM      30.25R
$$

ABBREVIATIONS USED IN REMARKS
   TC - TEMPERATURE IN CELSIUS
  WCI - WIND CHILL INDEX
   HX - HEAT INDEX
  VSB - VISIBILITY
$$



USA.gov is the U.S. government's official web portal to all federal, state and local government web resources and services.